FW1987 Weather Reports


time (UTC)temp
C
wind
direction
speed
KPH
gust
KPH
rain 1hr
cm
rain 24hr
cm
rain mn
cm
humidity
%
barometer
mb
20260505053034 16 201 0.0 0.0 0.00 0.00 0.00 92 1011.8
20260505051550 15 201 0.0 0.0 0.00 0.00 0.00 93 1011.8
20260505041508 15 195 0.0 0.0 0.00 0.00 0.00 93 1011.8
20260505040022 15 195 0.0 1.6 0.00 0.00 0.00 92 1011.8
20260505034540 15 195 0.0 0.0 0.00 0.00 0.00 92 1011.8
20260505033057 14 201 0.0 0.0 0.00 0.00 0.00 91 1011.7
20260505031535 14 201 0.0 0.0 0.00 0.00 0.00 90 1011.8
20260505030041 14 204 0.0 0.0 0.00 0.00 0.00 89 1011.8
20260505024552 14 268 0.0 0.0 0.00 0.00 0.00 88 1012.0
20260505023010 14 269 0.0 0.0 0.00 0.00 0.00 87 1012.1
20260505021516 15 269 0.0 0.0 0.00 0.00 0.00 87 1012.2
20260505020041 15 269 0.0 0.0 0.00 0.00 0.00 87 1012.5
20260505014608 15 268 0.0 0.0 0.00 0.00 0.00 86 1012.4
20260505013016 15 267 0.0 0.0 0.00 0.00 0.00 85 1012.5
20260505011551 15 267 0.0 0.0 0.00 0.00 0.00 83 1012.5
20260505010010 15 268 0.0 0.0 0.00 0.00 0.00 81 1012.7
20260505004520 15 268 0.0 0.0 0.00 0.00 0.00 79 1012.9
20260505003047 15 268 0.0 0.0 0.00 0.00 0.00 78 1013.2
20260505001510 15 268 0.0 0.0 0.00 0.00 0.00 76 1013.4
20260505000040 15 268 0.0 0.0 0.00 0.00 0.00 75 1013.4
20260504234545 15 268 0.0 0.0 0.00 0.00 0.00 75 1013.5
20260504233015 15 268 0.0 0.0 0.00 0.00 0.00 74 1013.8
20260504231533 15 268 0.0 0.0 0.00 0.00 0.00 73 1013.9
20260504230052 15 268 0.0 0.0 0.00 0.00 0.00 72 1013.9
20260504224511 16 268 0.0 0.0 0.00 0.00 0.00 71 1014.0
20260504223026 16 291 0.0 0.0 0.00 0.00 0.00 71 1014.1
20260504221558 16 291 0.0 0.0 0.00 0.00 0.00 70 1014.2
20260504220008 16 291 0.0 0.0 0.00 0.00 0.00 68 1014.2
20260504214527 17 291 0.0 0.0 0.00 0.00 0.00 67 1014.2
20260504213059 17 291 0.0 0.0 0.00 0.00 0.00 65 1014.3
20260504211506 18 291 0.0 0.0 0.00 0.00 0.00 63 1014.3
20260504210029 18 290 0.0 0.0 0.00 0.00 0.00 62 1014.2
20260504204550 18 284 0.0 3.2 0.00 0.00 0.00 62 1014.1
20260504203101 18 303 0.0 1.6 0.00 0.00 0.00 62 1014.1
20260504201525 18 286 0.0 0.0 0.00 0.00 0.00 62 1014.0
20260504200046 18 286 0.0 0.0 0.00 0.00 0.00 60 1014.0
20260504194601 19 286 0.0 0.0 0.00 0.00 0.00 59 1014.0
20260504193031 19 299 0.0 8.0 0.00 0.00 0.00 58 1013.9
20260504191602 20 277 0.0 11.3 0.00 0.00 0.00 56 1013.9
20260504190006 20 287 0.0 3.2 0.00 0.00 0.00 55 1013.8
20260504184523 21 280 0.0 1.6 0.00 0.00 0.00 53 1013.7
20260504183051 21 306 0.0 12.9 0.00 0.00 0.00 51 1013.5
20260504181550 21 265 0.0 14.5 0.00 0.00 0.00 48 1013.4
20260504180005 22 267 3.2 19.3 0.00 0.00 0.00 46 1013.3
20260504174524 24 307 1.6 11.3 0.00 0.00 0.00 37 1013.1
20260504173101 25 309 0.0 11.3 0.00 0.00 0.00 37 1013.1
20260504171515 25 300 0.0 9.7 0.00 0.00 0.00 38 1013.0
20260504081535 20 82 0.0 4.8 0.00 0.00 0.00 63 1016.2
20260504080110 20 86 0.0 0.0 0.00 0.00 0.00 63 1016.1